Temp
78 79 79 78 76 75 74 73 72 73 70 69 68 64 63 65 66 66 68 68 69 70 68 65 65 67 64 64 64 63 61 60 60 58 58 59 60 61 60 62 62 64 64
75 76 76 76 74 73 71 71 71 71 69 68 68 67 67 66 67 67 66 67 69 68 68 65 68 66 64 64 62 62 59 59 60 56 56 54 56 58 60 61 62 62 64
73 76 77 76 73 71 70 71 70 70 69 69 67 66 66 65 64 64 64 66 68 67 66 65 67 65 63 61 62 61 59 57 59 59 57 52 51 55 58 59 60 60 60
71 70 72 71 73 70 70 71 70 70 70 68 65 64 62 60 62 63 63 64 68 66 66 65 69 66 64 61 62 61 60 59 57 58 58 58 58 52 52 56 58 60 60
66 68 68 70 70 69 68 69 69 68 68 66 65 63 62 63 64 67 64 64 66 65 64 64 67 64 64 63 62 61 60 58 58 59 55 56 56 56 53 52 54 58 59
64 67 67 70 66 68 67 67 67 66 66 65 65 63 62 62 62 62 61 61 61 61 63 65 64 65 64 62 62 62 61 59 59 59 57 56 54 53 54 53 53 54 56
62 63 63 65 64 64 64 66 64 63 64 64 64 63 63 62 62 62 60 59 62 62 63 64 64 65 64 61 62 61 60 60 59 59 57 57 57 58 57 55 55 54 55
64 62 63 62 64 63 63 63 62 62 62 61 60 60 60 59 60 60 60 63 63 63 64 63 64 63 63 62 61 62 61 61 60 60 58 57 57 57 57 56 55 52 53
61 61 63 63 62 63 63 63 64 64 63 63 62 63 62 62 63 64 64 63 64 64 64 64 64 63 64 62 61 60 60 60 60 59 58 58 56 56 57 56 56 54 49
59 62 63 64 61 61 61 62 63 62 62 63 63 61 60 64 65 65 61 61 59 61 63 63 63 63 63 63 61 59 60 60 60 59 58 57 55 55 55 56 56 56 54
56 59 63 63 61 60 60 61 62 62 61 61 61 58 60 62 61 59 59 59 61 61 61 61 61 61 61 62 61 60 60 60 59 58 58 55 55 55 55 55 54 53 53
57 61 62 60 60 60 59 60 61 62 62 61 60 59 61 61 59 55 58 61 59 59 56 58 59 61 61 61 61 60 60 59 58 58 57 54 55 54 55 54 52 52 52
59 61 62 62 60 60 61 61 61 61 62 61 58 58 57 58 58 57 57 57 57 56 55 57 57 58 60 60 60 59 57 56 55 55 55 54 54 53 53 53 51 51 51
60 60 61 62 61 62 62 61 61 62 61 61 58 57 57 56 57 55 53 55 55 55 55 55 56 57 57 56 56 55 54 54 54 54 53 53 54 53 52 51 50 50 49
60 60 59 60 63 62 62 62 61 61 61 59 58 55 57 57 56 54 54 54 55 54 55 54 54 54 55 55 54 54 53 52 52 52 53 53 55 56 54 51 49 48 47
59 59 59 59 60 64 62 60 60 60 61 56 56 57 56 56 54 52 53 53 54 54 54 54 54 54 55 56 55 53 52 52 51 50 51 53 55 56 56 55 54 52 48
59 58 58 58 59 63 62 59 61 61 59 58 56 56 56 55 54 53 52 52 52 53 53 53 54 53 54 56 55 54 51 50 49 49 49 50 53 54 54 56 55 55 56
58 58 59 59 60 61 63 62 62 59 59 57 56 57 57 54 53 51 50 50 51 51 51 52 52 52 54 55 54 53 50 49 49 50 51 51 51 51 49 46 44 45 45
57 58 60 60 61 60 63 62 60 60 59 56 56 56 55 52 51 50 50 51 50 50 50 51 51 51 52 54 54 54 52 50 51 51 48 47 46 56 53 45 43 41 43
58 58 59 61 61 61 63 61 59 58 57 56 56 56 54 51 49 50 50 52 52 50 51 51 52 53 52 55 57 56 53 47 46 46 46 53 49 56 54 44 41 39 39
58 60 60 60 61 62 63 60 58 56 57 57 55 54 53 51 50 50 51 52 52 52 52 52 52 53 53 54 57 56 51 48 46 44 43 45 53 52 52 50 43 43 44
58 59 58 59 61 62 62 59 58 59 57 56 54 53 52 53 52 51 51 54 54 53 51 50 49 50 50 55 57 57 54 52 46 43 42 46 52 51 50 48 51 52 47
57 59 57 56 58 59 62 59 59 57 54 54 53 53 53 53 53 52 52 53 54 50 48 47 44 44 46 48 55 56 55 53 46 45 48 50 50 49 47 50 51 47 40
56 58 56 55 55 58 61 61 58 56 54 52 53 54 55 54 55 56 55 53 47 45 48 46 44 43 42 42 44 46 47 50 48 47 45 47 47 47 47 42 42 40 39
56 57 56 53 55 57 58 61 58 56 52 52 53 52 56 54 56 51 52 49 48 48 45 43 45 43 42 44 47 45 44 42 45 42 40 39 38 37 37 37 38 37 38
55 55 56 54 54 55 56 58 57 56 52 51 52 54 55 52 50 45 43 51 51 53 53 52 49 49 51 53 52 51 50 50 50 42 38 37 36 35 35 35 35 35 37
MSLP
1002.34 1002.10 1002.78 1003.43 1004.23 1004.95 1005.85 1006.62 1007.32 1008.02 1008.71 1009.45 1010.40 1011.18 1011.56 1011.78 1012.01 1012.40 1012.61 1012.96 1013.03 1013.03 1013.46 1014.13 1014.44 1014.73 1015.41 1016.00 1016.33 1016.81 1017.34 1018.24 1018.67 1019.14 1019.47 1019.74 1019.55 1019.89 1020.02 1019.91 1020.24 1020.53 1020.46
1001.90 1001.93 1002.08 1002.97 1004.04 1005.02 1005.75 1006.65 1007.39 1008.15 1008.67 1009.17 1009.71 1010.33 1010.89 1011.38 1011.72 1012.05 1012.39 1012.68 1012.94 1013.12 1013.38 1014.06 1014.55 1014.70 1015.45 1016.08 1016.56 1016.69 1017.54 1018.12 1018.48 1019.14 1019.80 1020.23 1020.38 1020.53 1020.52 1020.25 1020.51 1020.71 1020.56
1001.50 1001.58 1001.85 1002.33 1003.47 1004.78 1005.90 1006.81 1007.53 1008.13 1008.67 1009.16 1009.56 1009.98 1010.56 1011.15 1011.71 1012.05 1012.30 1012.44 1012.63 1013.00 1013.50 1013.95 1014.32 1014.79 1015.31 1015.94 1016.44 1016.87 1017.17 1017.83 1018.50 1018.85 1019.16 1019.80 1020.04 1020.52 1020.62 1020.64 1020.64 1020.79 1021.26
1001.22 1001.45 1001.82 1002.40 1003.18 1004.27 1005.59 1006.93 1007.65 1008.15 1008.68 1009.20 1009.75 1010.30 1010.85 1011.51 1011.71 1011.92 1012.09 1012.25 1012.32 1012.81 1013.28 1013.74 1013.97 1014.56 1015.04 1015.74 1016.37 1016.76 1016.99 1017.45 1017.97 1018.49 1018.84 1019.14 1019.28 1019.92 1020.73 1020.86 1020.86 1021.09 1021.21
1002.23 1002.16 1002.46 1002.93 1003.79 1004.62 1005.53 1006.76 1007.84 1008.37 1008.79 1009.29 1009.80 1010.37 1010.72 1010.97 1011.18 1011.55 1012.10 1012.32 1012.44 1012.66 1013.26 1013.69 1014.08 1014.45 1014.92 1015.45 1016.00 1016.56 1016.95 1017.17 1017.72 1018.02 1018.96 1019.32 1019.11 1019.65 1019.98 1020.46 1020.92 1021.08 1021.20
1002.99 1003.14 1003.43 1003.80 1004.77 1005.45 1006.20 1007.02 1008.11 1008.87 1009.22 1009.65 1009.96 1010.25 1010.59 1010.90 1011.39 1011.88 1012.37 1012.71 1012.84 1013.17 1013.48 1013.67 1013.99 1014.10 1014.74 1015.24 1015.73 1016.12 1016.51 1017.01 1017.50 1017.83 1018.21 1018.70 1019.08 1019.13 1019.67 1020.16 1020.82 1020.88 1021.11
1003.80 1004.09 1004.35 1005.03 1005.72 1006.44 1007.03 1007.64 1008.63 1009.39 1009.70 1009.91 1010.15 1010.39 1010.74 1011.09 1011.57 1012.03 1012.49 1012.84 1013.33 1013.69 1013.78 1013.77 1013.89 1014.11 1014.50 1014.86 1015.36 1015.85 1016.36 1016.88 1017.40 1017.57 1017.95 1018.22 1018.67 1019.08 1019.41 1019.84 1020.41 1020.87 1021.07
1004.13 1004.89 1005.33 1005.82 1006.42 1007.17 1007.78 1008.49 1009.22 1009.77 1009.99 1010.23 1010.60 1010.97 1011.19 1011.47 1011.83 1012.23 1012.55 1012.82 1013.32 1013.48 1013.67 1013.84 1013.95 1014.12 1014.23 1014.67 1015.04 1015.66 1016.24 1016.83 1017.36 1017.68 1017.98 1018.35 1018.73 1018.91 1019.08 1019.60 1020.06 1020.73 1021.17
1004.65 1005.40 1006.08 1006.50 1007.29 1007.78 1008.45 1009.26 1009.86 1010.09 1010.41 1010.77 1011.28 1011.56 1011.65 1011.71 1011.93 1012.23 1012.58 1012.90 1013.06 1013.25 1013.50 1013.78 1013.91 1014.15 1014.36 1014.67 1015.07 1015.56 1016.13 1016.65 1017.02 1017.48 1017.88 1018.15 1018.69 1018.95 1019.09 1019.49 1019.81 1020.06 1020.94
1005.33 1005.76 1006.61 1006.97 1007.87 1008.30 1009.25 1009.76 1010.21 1010.47 1010.77 1011.02 1011.47 1011.80 1011.76 1011.70 1012.05 1012.41 1012.82 1013.06 1013.29 1013.58 1013.79 1013.93 1014.04 1014.23 1014.40 1014.60 1014.96 1015.51 1015.87 1016.29 1016.75 1017.13 1017.70 1018.14 1018.56 1018.92 1019.23 1019.50 1019.98 1020.29 1020.89
1005.98 1006.05 1006.79 1007.31 1008.23 1008.88 1009.65 1010.01 1010.37 1010.54 1010.94 1011.22 1011.64 1011.91 1011.92 1012.11 1012.57 1012.97 1013.29 1013.48 1013.58 1013.81 1014.10 1014.14 1014.18 1014.29 1014.47 1014.65 1014.91 1015.38 1015.77 1016.23 1016.60 1016.99 1017.44 1017.95 1018.35 1018.80 1019.15 1019.64 1020.15 1020.65 1021.01
1006.49 1005.98 1007.01 1007.95 1008.58 1009.17 1009.81 1010.25 1010.51 1010.65 1011.06 1011.46 1011.95 1012.21 1012.37 1012.73 1013.09 1013.55 1013.74 1013.89 1013.91 1014.00 1014.18 1014.26 1014.27 1014.30 1014.42 1014.65 1014.83 1015.38 1015.75 1016.13 1016.43 1016.78 1017.30 1017.42 1018.31 1018.65 1018.92 1019.66 1020.34 1020.94 1021.45
1006.49 1006.17 1007.04 1007.68 1008.58 1009.21 1009.61 1009.98 1010.40 1010.84 1011.22 1011.86 1012.30 1012.57 1012.85 1013.11 1013.35 1013.72 1013.99 1014.10 1014.17 1014.34 1014.36 1014.33 1014.39 1014.42 1014.50 1014.61 1014.89 1015.46 1015.91 1016.36 1016.72 1017.03 1017.28 1017.65 1018.05 1018.63 1019.25 1019.96 1020.61 1021.00 1021.21
1006.21 1006.53 1007.05 1007.53 1008.24 1008.97 1009.53 1010.01 1010.53 1010.94 1011.48 1012.00 1012.41 1012.69 1013.12 1013.33 1013.67 1013.97 1014.16 1014.38 1014.42 1014.50 1014.50 1014.45 1014.37 1014.46 1014.64 1015.00 1015.43 1015.97 1016.47 1016.95 1017.35 1017.67 1017.97 1018.27 1018.61 1019.02 1019.64 1020.41 1020.91 1021.33 1021.98
1006.35 1006.70 1007.09 1007.37 1007.73 1008.44 1009.16 1009.87 1010.60 1011.15 1011.60 1012.16 1012.71 1013.18 1013.45 1013.64 1014.14 1014.23 1014.41 1014.67 1014.78 1014.83 1014.81 1014.66 1014.70 1014.81 1015.08 1015.44 1015.87 1016.50 1017.06 1017.60 1018.06 1018.24 1018.73 1018.95 1019.21 1019.50 1020.03 1020.61 1021.42 1021.84 1022.05
1006.39 1006.69 1007.12 1007.49 1007.83 1008.04 1008.96 1009.69 1010.58 1011.15 1011.78 1012.41 1013.15 1013.46 1013.76 1014.11 1014.50 1014.60 1014.81 1015.00 1015.14 1015.11 1015.17 1015.16 1015.24 1015.52 1015.82 1016.07 1016.49 1016.98 1017.64 1018.00 1018.58 1018.85 1019.42 1019.59 1019.89 1020.23 1020.70 1021.31 1021.72 1021.66 1021.94
1006.84 1006.54 1006.91 1007.44 1007.79 1008.02 1008.67 1009.70 1010.45 1011.29 1011.90 1012.71 1013.37 1013.69 1014.11 1014.46 1014.81 1014.94 1015.24 1015.51 1015.62 1015.68 1015.78 1015.81 1016.02 1016.31 1016.63 1016.94 1017.27 1017.63 1018.36 1018.91 1019.57 1020.00 1020.36 1020.63 1020.93 1021.00 1021.33 1021.59 1021.90 1022.12 1022.21
1007.36 1007.05 1007.11 1007.29 1007.69 1008.10 1008.57 1009.35 1010.32 1011.41 1012.07 1012.90 1013.43 1013.81 1014.27 1014.73 1015.18 1015.46 1015.73 1016.05 1016.09 1016.30 1016.58 1016.69 1016.93 1017.21 1017.64 1017.83 1018.17 1018.67 1019.32 1019.93 1020.41 1020.77 1021.03 1021.19 1021.47 1021.72 1022.07 1022.64 1023.20 1023.54 1023.77
1007.88 1007.45 1007.22 1007.29 1007.40 1007.86 1008.63 1009.15 1010.29 1011.37 1012.13 1012.90 1013.48 1013.86 1014.49 1015.07 1015.54 1015.95 1016.18 1016.47 1016.57 1016.97 1017.33 1017.61 1017.80 1018.10 1018.55 1018.68 1019.00 1019.31 1019.89 1020.59 1021.13 1021.64 1021.85 1022.02 1022.05 1022.13 1022.77 1023.40 1023.97 1024.37 1024.60
1007.77 1007.53 1007.42 1007.08 1007.17 1007.67 1008.47 1009.21 1010.31 1011.43 1012.31 1013.02 1013.62 1014.13 1014.81 1015.41 1015.90 1016.29 1016.57 1016.90 1017.16 1017.58 1017.96 1018.39 1018.70 1019.03 1019.27 1019.62 1019.72 1019.97 1020.58 1021.31 1022.04 1022.51 1022.73 1022.72 1022.93 1022.67 1023.05 1023.64 1024.20 1024.77 1025.14
1008.16 1007.56 1007.18 1006.91 1006.69 1007.45 1008.32 1009.36 1010.27 1011.49 1012.40 1013.21 1013.96 1014.56 1015.17 1015.74 1016.23 1016.56 1016.89 1017.28 1017.66 1018.11 1018.49 1019.06 1019.40 1019.67 1019.89 1020.14 1020.30 1020.61 1021.12 1021.83 1022.60 1023.24 1023.54 1023.58 1023.41 1023.59 1023.73 1024.06 1024.40 1024.81 1025.11
1008.09 1007.92 1007.77 1007.24 1007.05 1007.48 1008.25 1009.40 1010.33 1011.41 1012.51 1013.42 1014.23 1014.89 1015.38 1015.95 1016.54 1016.82 1017.22 1017.54 1017.83 1018.44 1019.13 1019.69 1020.12 1020.49 1020.51 1020.54 1020.68 1020.94 1021.46 1022.27 1022.94 1023.66 1023.99 1024.07 1024.02 1024.28 1024.56 1024.92 1024.91 1024.97 1025.36
1008.08 1008.17 1008.00 1007.85 1007.79 1007.94 1008.37 1009.41 1010.32 1011.61 1012.86 1013.71 1014.38 1015.06 1015.57 1016.10 1016.76 1017.10 1017.38 1017.76 1018.28 1018.76 1019.62 1020.25 1020.87 1021.39 1021.41 1021.37 1021.33 1021.64 1022.19 1022.82 1023.56 1024.09 1024.37 1024.69 1024.88 1025.06 1025.27 1025.28 1025.40 1025.91 1026.24
1008.45 1008.61 1008.41 1008.45 1008.54 1008.47 1008.68 1009.42 1010.51 1011.80 1013.02 1013.88 1014.43 1015.06 1015.53 1016.03 1016.82 1017.20 1017.49 1018.01 1018.59 1019.19 1019.83 1020.58 1021.25 1021.83 1022.19 1022.26 1022.48 1022.83 1023.43 1023.68 1024.18 1024.62 1025.13 1025.24 1025.45 1025.65 1025.97 1026.51 1026.67 1026.81 1026.83
1009.03 1008.82 1008.60 1008.76 1008.85 1008.89 1009.00 1009.64 1010.70 1011.81 1013.09 1013.97 1014.40 1014.95 1015.47 1015.91 1016.80 1017.54 1017.92 1018.44 1018.84 1019.33 1019.88 1020.58 1021.08 1021.55 1022.27 1022.70 1022.98 1023.26 1023.79 1024.28 1024.70 1025.28 1025.65 1025.85 1026.30 1026.59 1026.84 1027.13 1027.38 1027.54 1027.59
1009.13 1009.05 1008.80 1008.89 1009.18 1009.23 1009.38 1010.02 1010.79 1011.78 1012.91 1013.94 1014.46 1014.81 1015.54 1016.21 1017.18 1017.98 1018.78 1018.92 1019.02 1019.50 1020.11 1020.56 1020.89 1021.44 1021.85 1022.41 1022.88 1023.30 1023.88 1024.29 1024.61 1025.32 1026.03 1026.48 1026.88 1027.25 1027.53 1027.80 1027.98 1028.16 1028.30
Wind_Speed
11 10 11 10 8 9 9 9 9 7 5 4 7 4 3 2 2 3 3 4 5 3 6 5 1 5 5 4 6 5 8 4 5 3 5 5 5 4 4 5 3 5 2
10 9 11 12 11 9 8 8 8 7 6 4 3 4 5 4 5 4 6 5 5 3 3 6 4 5 5 6 5 8 3 2 4 3 2 2 2 2 2 3 2 1 2
11 10 12 15 13 11 9 8 8 8 7 5 3 4 4 4 3 2 2 3 6 7 4 6 4 5 5 4 6 7 7 4 3 4 3 3 3 3 0 0 1 2 2
6 4 6 12 14 10 11 9 8 7 7 7 5 6 4 4 4 4 3 4 6 7 6 2 5 5 4 5 6 6 5 5 7 4 3 1 3 3 3 1 2 3 3
10 9 7 9 9 8 10 9 8 7 7 7 5 5 4 4 2 3 6 4 3 7 6 5 5 4 4 6 9 8 8 4 5 6 3 2 3 2 3 4 3 1 4
7 7 4 9 9 9 8 8 8 5 7 6 4 5 5 3 3 3 3 3 4 4 4 4 5 5 5 6 8 9 8 6 5 5 4 3 3 4 3 3 2 3 2
1 3 8 8 9 8 8 7 8 5 6 6 6 4 2 2 1 2 4 5 2 2 4 3 4 5 5 6 5 6 6 7 6 8 5 4 3 3 2 4 4 3 2
4 6 7 8 8 10 8 9 4 5 7 7 7 7 7 4 4 5 2 4 3 4 5 3 3 4 6 5 6 5 5 5 5 8 6 5 3 2 3 3 3 5 2
7 8 6 7 11 9 7 7 6 6 6 7 5 6 4 4 4 4 3 2 2 3 4 5 5 4 4 6 8 5 6 7 7 6 7 6 3 3 4 4 2 3 3
7 7 5 7 11 10 6 4 8 6 6 7 7 5 5 5 5 4 5 3 4 5 2 2 3 4 4 3 6 4 4 6 6 5 7 5 4 5 3 5 3 2 2
5 2 6 7 12 11 5 5 5 7 7 5 7 6 6 8 8 7 5 4 4 2 2 3 2 3 3 3 3 5 6 7 6 7 9 7 8 6 5 5 4 4 2
7 6 7 11 10 11 8 6 5 5 8 7 6 5 5 5 6 6 4 3 3 3 2 3 2 2 4 2 4 6 5 6 5 5 8 10 7 7 8 6 5 4 3
6 8 7 10 9 6 6 6 5 7 8 6 6 5 6 5 5 5 5 5 5 4 3 2 3 1 1 3 5 6 5 4 4 4 4 6 8 8 7 6 4 3 4
5 5 6 7 11 9 8 5 5 6 7 6 6 6 6 5 5 5 6 5 4 4 4 3 2 3 5 6 8 9 8 8 6 6 6 6 6 9 8 6 5 4 4
8 5 6 4 8 9 11 9 5 6 5 7 6 6 4 6 5 5 7 5 4 4 4 6 8 7 7 6 10 9 9 10 10 10 8 7 11 15 11 6 4 4 4
8 8 8 6 4 6 12 10 8 6 7 7 5 5 6 5 6 5 7 5 5 6 6 8 8 9 7 19 19 13 10 11 10 11 10 11 15 16 18 16 13 8 5
9 6 11 7 5 3 14 11 9 7 7 8 7 5 7 7 6 6 8 6 7 9 9 10 10 10 11 21 22 21 10 12 10 10 10 10 9 13 11 18 19 17 19
9 8 4 7 6 4 11 12 11 8 7 8 7 6 8 9 8 7 8 6 9 9 8 10 11 11 11 22 23 22 13 11 11 11 9 8 8 8 11 12 11 11 11
5 6 6 3 7 6 7 13 12 8 8 9 7 6 9 9 8 8 9 7 10 10 10 10 11 11 11 22 23 18 12 10 10 10 9 8 7 16 17 10 10 8 7
5 6 5 6 7 8 8 13 13 9 9 9 8 8 10 10 9 8 9 8 9 10 10 11 11 16 13 17 16 13 9 11 9 10 8 15 9 11 15 7 7 6 5
6 6 8 6 9 10 11 12 13 11 9 10 10 9 10 10 9 8 6 9 10 11 11 11 10 10 8 6 13 15 8 8 8 7 5 4 14 17 18 15 7 6 5
6 4 5 5 8 8 12 12 13 12 12 11 11 11 11 9 8 9 5 8 10 12 11 10 9 7 7 14 17 17 16 15 9 8 4 7 16 17 17 10 13 11 8
5 4 4 6 4 5 12 13 12 15 12 12 12 11 11 11 10 8 7 7 8 8 8 8 8 6 5 7 19 20 20 19 11 7 14 17 16 16 11 12 14 13 5
5 3 4 3 2 2 9 12 16 15 13 12 11 11 11 13 10 6 4 6 5 5 7 8 8 7 5 5 6 7 10 17 11 12 8 11 11 10 9 9 7 4 4
5 6 2 4 2 2 5 12 16 16 13 11 10 6 9 10 9 5 3 5 4 6 5 5 7 8 7 5 10 9 6 6 9 8 4 3 4 4 4 4 5 4 5
5 6 5 6 4 4 5 13 16 16 14 11 8 7 8 7 8 7 7 14 11 13 13 12 8 5 13 16 15 18 18 15 13 4 4 3 4 4 3 4 3 4 6
Wind_Direction
266 199 176 172 158 139 135 145 135 158 143 146 141 131 168 180 147 150 171 214 248 203 149 143 196 130 134 140 138 116 122 99 120 115 66 23 59 55 107 117 136 171 153
246 233 173 166 152 151 144 141 146 161 150 146 151 153 159 186 178 174 167 199 207 165 140 136 180 157 138 150 154 140 127 101 168 142 133 139 83 75 5 59 58 53 202
229 245 186 169 151 147 150 152 154 155 145 144 115 76 72 67 75 93 156 203 217 159 194 161 176 181 143 156 155 154 141 143 165 170 140 127 186 126 355 359 302 347 336
260 285 285 148 146 143 139 146 145 148 148 146 127 132 156 156 185 180 196 222 216 156 160 131 179 181 143 153 169 163 154 136 182 144 101 333 157 157 151 303 263 206 216
3 13 130 119 122 111 125 130 134 138 125 134 148 161 168 172 188 139 169 207 146 129 138 152 200 186 152 155 165 169 168 175 172 174 138 152 81 76 134 159 207 161 180
349 341 95 101 96 99 102 107 117 122 121 130 156 149 159 154 107 117 130 83 66 63 116 163 203 158 163 175 180 175 177 171 167 157 138 159 153 167 162 118 163 156 164
331 84 100 100 103 107 105 110 122 134 138 142 141 141 140 127 136 144 124 109 104 188 214 214 203 157 165 163 160 166 159 168 174 177 163 155 151 140 164 120 182 153 155
127 109 110 105 118 99 96 90 109 133 95 82 74 72 70 72 83 97 97 102 191 191 188 207 220 162 161 153 146 147 154 161 180 185 170 156 143 140 143 132 189 133 152
118 114 113 121 104 113 103 125 165 117 112 111 119 130 109 126 105 134 133 174 168 136 174 194 196 180 211 161 164 168 174 172 177 177 173 173 160 149 144 126 91 117 130
100 129 152 139 117 109 106 150 141 139 136 138 140 149 179 134 124 129 100 90 63 31 333 198 222 197 213 210 165 159 153 158 177 168 163 152 159 143 147 133 136 109 92
141 142 135 102 122 112 120 112 111 128 124 114 88 82 62 65 54 53 45 37 55 88 248 327 11 195 201 245 165 151 167 179 167 159 171 164 158 160 157 135 116 107 77
193 150 129 122 129 132 142 142 160 137 98 97 97 85 83 104 106 77 66 60 60 49 351 310 278 231 154 199 196 149 168 166 159 170 174 162 161 160 140 129 114 122 116
206 121 142 132 123 142 154 146 134 119 114 134 128 136 121 99 101 87 63 51 54 42 334 278 260 258 175 128 119 119 115 97 100 103 136 148 152 134 124 115 113 91 67
130 135 160 146 149 160 147 130 122 118 132 153 114 91 89 102 95 100 75 48 54 40 33 36 183 131 118 103 100 99 99 93 86 84 90 101 120 128 108 97 88 83 97
150 191 165 147 156 165 150 143 136 129 122 102 94 109 106 93 84 73 74 62 56 61 58 73 74 76 80 97 103 101 98 96 85 87 78 93 103 103 105 103 94 131 105
186 189 158 169 259 161 142 141 133 135 125 111 118 114 106 93 90 79 78 67 73 70 73 73 77 79 86 99 98 95 92 91 85 77 70 72 83 94 101 107 102 96 99
11 185 161 170 214 250 139 145 133 133 131 125 134 131 124 113 97 88 76 65 73 73 65 74 77 82 96 102 99 92 87 85 82 84 85 86 90 91 91 84 68 60 69
356 6 44 170 188 235 143 139 129 146 135 135 142 155 125 112 99 90 85 80 84 76 74 76 80 82 92 101 99 94 89 89 89 92 90 90 96 95 87 79 70 59 61
343 339 323 309 175 186 157 139 137 147 134 138 142 116 117 114 107 100 95 92 92 86 81 82 87 91 94 101 103 103 98 91 81 76 69 63 70 101 104 100 99 88 78
335 310 277 269 179 173 149 140 138 140 142 140 133 119 119 117 114 111 106 104 97 96 93 90 89 97 99 103 104 96 97 90 84 71 62 78 77 83 124 119 117 113 142
309 316 319 301 166 162 143 148 141 147 141 132 127 120 118 119 119 113 105 114 111 107 102 98 93 85 81 113 110 105 102 106 99 90 74 67 85 76 75 82 88 105 97
345 2 306 332 140 151 144 149 145 134 133 135 132 128 127 125 125 122 116 124 124 113 108 102 88 70 63 76 87 95 98 101 103 100 88 86 89 84 80 74 81 75 58
21 360 18 46 88 123 148 146 139 130 134 136 136 135 136 129 134 134 135 125 121 117 117 111 101 90 61 76 91 97 100 99 94 101 101 95 88 80 72 76 65 53 43
10 328 101 57 51 118 145 143 133 135 138 144 144 149 150 138 143 144 132 119 115 115 124 124 120 116 98 82 83 86 94 99 96 98 90 100 101 94 80 64 57 54 58
332 341 124 146 160 108 119 137 139 139 142 149 147 152 140 133 145 76 112 122 120 124 130 130 134 136 130 132 130 128 121 109 119 116 88 82 80 80 73 59 57 48 49
338 335 326 141 162 153 110 145 144 145 143 150 155 146 144 135 114 99 72 55 102 111 115 122 128 125 127 136 131 117 120 134 139 99 103 94 95 94 96 96 74 54 59